Regional Weather Roundup
Issued by NWS

Home | Current Version | Previous Version | Text Only | Print | Product List | Glossary On
Versions: 1 2 3 4 5 6 7 8 9 10 11 12 13 14 15 16 17 18 19 20 21 22 23 24 25 26 27 28 29 30 31 32 33 34 35 36 37 38 39 40 41 42 43 44 45 46 47 48 49 50
000
ASUS44 KJAN 052310
RWRMS

MISSISSIPPI HOURLY WEATHER ROUNDUP
NATIONAL WEATHER SERVICE JACKSON MS
600 PM CDT TUE MAY 05 2015

NOTE: "FAIR: INDICATES FEW OR NO CLOUDS BELOW 12,000 FEET WITH NO
SIGNIFICANT WEATHER AND/OR OBSTRUCTIONS TO VISIBILITY.

MSZ001>002-007>008-010>013-018>021-025>028-034>036-060000-
NORTHWEST MISSISSIPPI

CITY           SKY/WX    TMP DP  RH WIND       PRES   REMARKS
CLARKSDALE     FAIR      82  54  36 SE15      30.12S
CLEVELAND      FAIR      82  55  38 SE12G18   30.09F
GREENWOOD      MOSUNNY   82  53  36 E8        30.11F
GREENVILLE     SUNNY     83  50  31 S13       30.08F
OLIVE BRANCH   MOSUNNY   81  52  36 SE9       30.14S
OXFORD         FAIR      81  50  34 S9        30.15F
TUNICA         CLEAR     81  48  32 SE8       30.12F
$$

MSZ003>006-009-014>017-022>024-029>033-037>039-060000-
NORTHEAST MISSISSIPPI

CITY           SKY/WX    TMP DP  RH WIND       PRES   REMARKS
COLUMBUS AFB   MOSUNNY   85  55  35 SE5       30.14S
CORINTH        FAIR      82  52  34 S5        30.14F
GOLDN TRIANGLE MOSUNNY   81  55  41 SE9       30.14F
STARKVILLE     FAIR      81  54  39 SE8       30.14S
TUPELO         SUNNY     82  52  35 S8        30.14F
$$

MSZ040-058-060000-
CENTRAL MISSISSIPPI

CITY           SKY/WX    TMP DP  RH WIND       PRES   REMARKS
JACKSON INTL   MOSUNNY   83  54  36 SE10      30.10F
JACKSON HAWKNS SUNNY     82  54  37 SE6       30.10F
MERIDIAN KEY   MOSUNNY   81  54  39 E8        30.13S
MERIDIAN NAS   MOSUNNY   80  56  43 E7        30.14S
RAYMOND        FAIR      82  77  83 SE6       30.09S HX  91
VICKSBURG      CLOUDY    82  58  43 SE7       30.08F
$$

MSZ059>079-060000-
SOUTH MISSISSIPPI

CITY           SKY/WX    TMP DP  RH WIND       PRES   REMARKS
BROOKHAVEN     FAIR      81  59  47 CALM      30.11S
HATTIESBURG    SUNNY     83  56  39 SE7       30.10F
MCCOMB         SUNNY     81  56  42 SE12      30.09S
NATCHEZ        MOSUNNY   79  63  57 SE6       30.08F
PINE BELT      SUNNY     82  28  14 SE8       30.12S
$$

MSZ080>082-060000-
COASTAL MISSISSIPPI

CITY           SKY/WX    TMP DP  RH WIND       PRES   REMARKS
BILOXI         SUNNY     77  58  52 SE10G18   30.11F
PASCAGOULA     SUNNY     77  61  57 SE13      30.12F
GULFPORT       SUNNY     77  60  55 SE20      30.10F
$$



USA.gov is the U.S. government's official web portal to all federal, state and local government web resources and services.